This is the latest recevied weather packets stored in our database for station/object N9EA. If no packets are shown the sender has not sent any weather packets the latest 10 day(s).
| Time | Temp. | Humidity | Pressure | Rain* | Wind** | Luminosity | Snow |
|---|---|---|---|---|---|---|---|
| 1777468574 | 10° C | 63% | 1015.4 hPa | 0 mm | - | 186 W/m² | - |
| 1777468271 | 9.44° C | 64% | 1015.5 hPa | 0 mm | - | 161 W/m² | - |
| 1777467967 | 9.44° C | 64% | 1015.5 hPa | 0 mm | - | 168 W/m² | - |
| 1777467663 | 10° C | 64% | 1015.4 hPa | 0 mm | - | 147 W/m² | - |
| 1777467359 | 10° C | 64% | 1015.3 hPa | 0 mm | - | 126 W/m² | - |
| 1777467055 | 10° C | 63% | 1015.4 hPa | 0 mm | - | 149 W/m² | - |
| 1777466752 | 10° C | 64% | 1015.4 hPa | 0 mm | - | 174 W/m² | - |
| 1777466450 | 9.44° C | 65% | 1015.4 hPa | 0 mm | - | 153 W/m² | - |
| 1777466145 | 8.89° C | 66% | 1015.5 hPa | 0 mm | - | 128 W/m² | - |
| 1777465842 | 9.44° C | 66% | 1015.4 hPa | 0 mm | - | 53 W/m² | - |
| 1777465538 | 9.44° C | 67% | 1015.3 hPa | 0 mm | - | 70 W/m² | - |
| 1777465233 | 9.44° C | 66% | 1015.3 hPa | 0 mm | - | 95 W/m² | - |
| 1777464928 | 8.89° C | 67% | 1015.1 hPa | 0 mm | - | 65 W/m² | - |
| 1777464623 | 8.89° C | 67% | 1015.1 hPa | 0 mm | - | 54 W/m² | - |
| 1777464319 | 8.89° C | 68% | 1015.3 hPa | 0 mm | - | 40 W/m² | - |
| 1777464015 | 8.89° C | 67% | 1015.2 hPa | 0 mm | - | 32 W/m² | - |
| 1777463710 | 8.89° C | 67% | 1015 hPa | 0 mm | - | 35 W/m² | - |
| 1777463405 | 8.89° C | 67% | 1015 hPa | 0 mm | - | 40 W/m² | - |
| 1777463101 | 8.89° C | 67% | 1015 hPa | 0 mm | - | 32 W/m² | - |
| 1777462797 | 8.89° C | 67% | 1014.8 hPa | 0 mm | - | 26 W/m² | - |
| 1777462492 | 8.89° C | 67% | 1014.9 hPa | 0 mm | - | 19 W/m² | - |
| 1777462189 | 8.89° C | 67% | 1014.7 hPa | 0 mm | - | 16 W/m² | - |
| 1777461886 | 8.89° C | 67% | 1014.8 hPa | 0 mm | - | 13 W/m² | - |
| 1777461583 | 8.89° C | 68% | 1014.9 hPa | 0 mm | - | 11 W/m² | - |
| 1777461278 | 8.89° C | 68% | 1014.6 hPa | 0 mm | - | 8 W/m² | - |
* Rain latest hour (hover to see other rain measurements)
** Current wind speed in m/s (hover to see current wind gust speed)